Terminal Aerodrome Forecast
Issued by NWS

Home | Current Version | Previous Version | Text Only | Print | Product List | Glossary On
Versions: 1 2 3 4 5 6 7 8 9 10 11 12 13
000
FTUS46 KSTO 262342
TAFSMF
TAF
KSMF 262342Z 2700/2724 35010KT P6SM SCT060
     FM270200 17006KT P6SM SCT250
     FM271600 35005KT P6SM SKC=

USA.gov is the U.S. government's official web portal to all federal, state and local government web resources and services.